#timestamp,LO_Frequency,Hit,StdDev 
1615096815.8,286046993.5,P
1615096835.6,286046989.2,P
1615096855.4,286046987.0,P
1615096875.3,286046985.0,Y
1615096895.1,286046988.7,P
1615096915.9,286046987.9,P
1615096935.7,286046983.2,P
1615096955.5,286046974.4,Y
1615096975.4,286046985.9,P
1615096995.2,286046978.7,P
1615097015.1,286046965.3,P
1615097016.0,286046965.3,Y
1615097035.8,286046980.4,P
1615097055.6,286046968.4,P
1615097075.5,286046964.6,P
1615097095.3,286046963.1,Y
1615097115.2,286046994.6,P
1615097135.9,286046987.5,N
1615097155.7,286046988.9,N
1615097175.6,286046988.3,N
1615097195.4,286046979.0,N
1615097215.3,286046979.0,N
1615097235.1,286046989.9,N
1615097255.8,286046987.9,N
1615097275.7,286046988.9,N
1615097295.5,286046991.7,N
1615097315.4,286046999.2,N
1615097335.2,286047001.0,N
1615097355.1,286046998.4,N
1615097356.0,286046998.4,N
1615097375.8,286047004.0,N
1615097395.6,286047002.4,N
1615097415.5,286047000.2,N
1615097435.3,286047000.5,N
1615097455.1,286046999.5,N
1615097475.9,286046998.3,N
1615097495.7,286046998.9,N
1615097515.6,286046994.0,N
1615097535.4,286046991.8,N
1615097555.2,286046992.6,N
1615097575.1,286046994.5,N
1615097576.0,286046994.5,N
1615097595.8,286046995.9,N
1615097615.6,286047001.2,N
1615097635.5,286046993.0,N
1615097655.3,286046995.3,N
1615097675.2,286047002.4,N
1615097695.9,286047004.9,N
1615097715.7,286047006.7,N
1615097735.6,286047005.3,N
1615097755.4,286047001.8,N
1615097775.3,286046994.2,N
1615097795.1,286046990.4,N
1615097796.0,286046990.4,N
1615097815.8,286046996.0,N
1615097835.7,286046993.1,N
1615097855.5,286046992.5,N
1615097875.3,286046988.5,N
1615097895.2,286046992.7,N
1615097915.0,286046991.3,N
1615097915.9,286046991.3,N
1615097935.8,286046995.0,N
1615097955.6,286046991.7,N
1615097975.4,286046998.3,N
1615097995.3,286047005.2,N
1615098015.1,286047010.5,N
1615098035.9,286047014.9,N
1615098055.7,286047020.0,Y
1615098075.5,286047031.4,P
1615098095.4,286047039.4,N
1615098115.2,286047043.5,N
1615098135.1,286047046.1,N
1615098136.0,286047046.1,N
1615098155.8,286047055.3,Y
1615098175.6,286047024.5,P
1615098195.5,286047027.9,P
1615098215.3,286047030.0,P
1615098235.2,286047025.9,Y
1615098255.9,286046994.6,P
1615098275.7,286046996.0,N
1615098295.6,286046996.4,N
1615098315.4,286046995.9,N
1615098335.2,286046991.3,N
1615098355.1,286046988.0,N
1615098356.0,286046988.0,N
1615098375.8,286046991.2,N
1615098395.7,286046989.8,N
1615098415.5,286046982.5,N
1615098435.3,286046987.6,N
1615098455.2,286046994.1,N
1615098475.0,286046993.3,N
1615098475.9,286046993.3,N
1615098495.7,286046995.9,N
1615098515.6,286047001.5,N
1615098535.4,286047002.5,N
1615098555.3,286046996.9,N
1615098575.1,286046999.1,N
1615098576.0,286046999.1,N
1615098595.8,286046996.0,N
1615098615.7,286046995.0,N
1615098635.5,286046993.6,N
1615098655.3,286046995.8,N
1615098675.2,286046995.9,N
1615098695.0,286046995.7,N
1615098695.9,286046995.7,N
1615098715.8,286047001.1,N
1615098735.6,286047006.3,N
1615098755.4,286047010.7,N
1615098775.3,286047015.4,N
1615098795.1,286047014.8,N
1615098815.8,286047013.5,N
1615098835.7,286047010.9,N
1615098855.5,286047010.3,N
1615098875.4,286047012.0,N
1615098895.2,286047011.0,N
1615098915.0,286047015.5,N
1615098915.9,286047015.5,N
1615098935.8,286047018.4,N
1615098955.6,286047017.2,N
1615098975.4,286047013.5,N
1615098995.3,286047013.5,N
1615099015.1,286047011.1,N
1615099035.9,286047011.3,N
1615099085.7,286047020.7,E
1615099095.7,286047015.8,N
1615099115.5,286047009.0,P
1615099135.3,286047008.8,N
1615099155.2,286047007.8,N
1615099175.0,286047011.6,Y
1615099175.9,286047011.6,P
1615099195.7,286047005.4,P
1615099215.6,286047004.6,N
1615099265.5,286047008.6,E
1615099275.4,286047007.3,N
1615099295.2,286047005.2,P
1615099315.0,286047010.5,P
1615099316.0,286047010.5,Y
1615099335.8,286047006.8,P
1615099355.6,286047016.3,P
1615099375.5,286047018.6,P
1615099395.3,286047017.8,Y
1615099415.1,286047003.3,P
1615099435.9,286046996.3,N
1615099455.7,286046994.3,N
1615099475.6,286046989.5,N
1615099495.4,286046984.4,N
1615099515.2,286046984.3,N
1615099535.1,286046981.3,N
1615099536.0,286046981.3,N
1615099555.8,286046976.8,N
1615099575.6,286046972.3,N
1615099595.5,286046970.6,N
1615099615.3,286046970.2,N
1615099635.2,286046977.9,N
1615099655.9,286046983.8,N
1615099675.7,286046986.9,N
1615099695.6,286046990.6,N
1615099715.4,286046988.8,N
1615099735.2,286046987.0,N
1615099755.1,286046984.2,N
1615099756.0,286046984.2,N
1615099775.8,286046982.0,N
1615099795.7,286046974.7,N
1615099815.5,286046980.1,N
1615099835.3,286046986.2,N
1615099855.2,286046985.8,N
1615099875.0,286046984.9,N
1615099875.9,286046984.9,N
1615099895.8,286046976.2,N
1615099915.6,286046972.5,Y
1615099935.4,286046985.9,P
1615099955.3,286046984.7,P
1615099975.1,286046982.9,P
1615099995.8,286046983.9,Y
1615100015.7,286046996.5,P
1615100035.5,286046995.2,N
1615100055.4,286046997.2,N
1615100075.2,286046998.0,N
1615100095.0,286046996.9,N
1615100095.9,286046996.9,N
1615100115.8,286047000.9,N
1615100135.6,286047006.0,N
1615100155.4,286047007.8,N
1615100175.3,286047011.2,N
1615100195.1,286047013.9,N
1615100215.9,286047011.8,N
1615100235.7,286047004.5,N
1615100255.5,286047002.8,N
1615100275.4,286046995.6,N
1615100295.2,286046991.0,N
1615100315.0,286046990.3,N
1615100316.0,286046990.3,N
1615100335.8,286046993.0,N
1615100355.6,286046988.7,N
1615100375.5,286046985.0,N
1615100395.3,286046979.8,N
